Luqa, Malta

6:01 PM CEST on April 24, 2017 (GMT +0200)
Luqa

Weather History for LMML - December, 2013

Change the Weather History Date:

Monday, December 9, 2013

  Actual Average Record
Temperature  
Mean Temperature 59 °F -  
Max Temperature 65 °F 61 °F 73 °F (2010)
Min Temperature 53 °F 51 °F 46 °F (2012)
Degree Days  
Heating Degree Days 6    
Growing Degree Days 9 (Base 50)    
Moisture  
Dew Point 49 °F    
Average Humidity 70    
Maximum Humidity 82    
Minimum Humidity 50    
Precipitation  
Precipitation 0.00 in 0.14 in - ()
Sea Level Pressure  
Sea Level Pressure 30.42 in    
Wind  
Wind Speed 7 mph ()    
Max Wind Speed 12 mph    
Max Gust Speed -    
Visibility 7.2 miles    
Events      
Averages and records for this station are not official NWS values.
T = Trace of Precipitation, MM = Missing Value Source: Averaged Metar Reports

Daily Weather History Graph

Daily Weather History Graph

Search for Another Location

Airport or City:

Trip Planner

Search our weather history database for the weather conditions in past years. The results will help you decide how hot, cold, wet, or windy it might be!

Date:

Astronomy

Dec. 09, 2013 Rise Set
Actual Time 7:00 AM CET 4:48 PM CET
Civil Twilight 6:32 AM CET 5:16 PM CET
Nautical Twilight 6:00 AM CET 5:48 PM CET
Astronomical Twilight 5:29 AM CET 6:19 PM CET
Moon 11:55 AM CET (12/9) No Moon Set
Length of Visible Light 10h 44m
Length of Day
9h 47m
Waxing Crescent, 48% of the Moon is Illuminated
Dec 9
Waxing Crescent
Dec 9
First Quarter
Dec 17
Full
Dec 25
Last Quarter
Jan 1
New

Hourly Weather History & Observations

Time (CET) Temp. Dew Point Humidity Pressure Visibility Wind Dir Wind Speed Gust Speed Precip Events Conditions
12:15 AM 57.2 °F 46.4 °F 67% 30.42 in - ESE 9.2 mph - N/A   Clear
12:45 AM 55.4 °F 46.4 °F 72% 30.42 in - ESE 10.4 mph - N/A   Clear
1:00 AM 56 °F 46 °F 61% 30.44 in 9 mi SE 9.2 mph - -  
1:15 AM 55.4 °F 46.4 °F 72% 30.42 in - SE 9.2 mph - N/A   Clear
1:45 AM 53.6 °F 46.4 °F 77% 30.42 in - SE 8.1 mph - N/A   Clear
2:15 AM 53.6 °F 46.4 °F 77% 30.42 in - SE 8.1 mph - N/A   Clear
2:45 AM 53.6 °F 46.4 °F 77% 30.42 in - SE 8.1 mph - N/A   Clear
3:15 AM 53.6 °F 46.4 °F 77% 30.42 in - SE 6.9 mph - N/A   Clear
3:45 AM 53.6 °F 46.4 °F 77% 30.42 in - SE 4.6 mph - N/A   Clear
4:00 AM 54 °F 46 °F 66% 30.43 in 28 mi SE 5.8 mph - -  
4:12 AM 54 °F 46 °F 66% 30.43 in 7 mi SE 5.8 mph - -   Mostly Cloudy
4:15 AM 53.6 °F 44.6 °F 72% 30.42 in - SE 8.1 mph - N/A   Clear
4:45 AM 53.6 °F 46.4 °F 77% 30.42 in - SSE 6.9 mph - N/A   Clear
4:46 AM 54 °F 46 °F 66% 30.43 in 7 mi SE 5.8 mph - -   Mostly Cloudy
5:15 AM 53.6 °F 46.4 °F 77% 30.42 in 6.2 mi SSE 5.8 mph - N/A   Partly Cloudy
5:45 AM 53.6 °F 48.2 °F 82% 30.42 in - SE 5.8 mph - N/A   Clear
6:15 AM 53.6 °F 48.2 °F 82% 30.42 in 6.2 mi SE 5.8 mph - N/A   Partly Cloudy
6:45 AM 55.4 °F 48.2 °F 77% 30.42 in 6.2 mi SSE 6.9 mph - N/A   Partly Cloudy
7:00 AM 56 °F 48 °F 66% 30.45 in 7 mi SSE 8.1 mph - -  
7:15 AM 55.4 °F 48.2 °F 77% 30.42 in 6.2 mi SSE 6.9 mph - N/A   Partly Cloudy
7:45 AM 57.2 °F 50.0 °F 77% 30.45 in 6.2 mi SE 5.8 mph - N/A   Partly Cloudy
8:15 AM 57.2 °F 50.0 °F 77% 30.42 in 6.2 mi SE 9.2 mph - N/A   Partly Cloudy
8:45 AM 59.0 °F 50.0 °F 72% 30.45 in 6.2 mi SSE 6.9 mph - N/A   Partly Cloudy
9:15 AM 60.8 °F 48.2 °F 63% 30.45 in 6.2 mi South 6.9 mph - N/A   Partly Cloudy
9:45 AM 60.8 °F 50.0 °F 68% 30.45 in 6.2 mi SSE 8.1 mph - N/A   Partly Cloudy
10:00 AM 61 °F 49 °F 56% 30.47 in 12 mi SSE 8.1 mph - -   Scattered Clouds
10:15 AM 60.8 °F 50.0 °F 68% 30.45 in 6.2 mi SSE 8.1 mph - N/A   Partly Cloudy
10:45 AM 64.4 °F 50.0 °F 59% 30.45 in 6.2 mi SSE 11.5 mph - N/A   Partly Cloudy
11:15 AM 64.4 °F 50.0 °F 59% 30.45 in 6.2 mi South 9.2 mph - N/A   Scattered Clouds
11:45 AM 64.4 °F 50.0 °F 59% 30.45 in 6.2 mi SSE 8.1 mph - N/A   Partly Cloudy
12:15 PM 64.4 °F 50.0 °F 59% 30.42 in 6.2 mi South 6.9 mph - N/A   Mostly Cloudy
12:45 PM 64.4 °F 50.0 °F 59% 30.42 in - South 8.1 mph - N/A   Clear
1:00 PM 65 °F 51 °F 50% 30.43 in 16 mi SSE 9.2 mph - -  
1:15 PM 64.4 °F 50.0 °F 59% 30.42 in 6.2 mi South 9.2 mph - N/A   Partly Cloudy
1:45 PM 64.4 °F 50.0 °F 59% 30.39 in 6.2 mi SSW 5.8 mph - N/A   Partly Cloudy
2:15 PM 64.4 °F 50.0 °F 59% 30.39 in 6.2 mi South 6.9 mph - N/A   Partly Cloudy
2:45 PM 64.4 °F 50.0 °F 59% 30.39 in 6.2 mi SSE 9.2 mph - N/A   Partly Cloudy
3:15 PM 62.6 °F 50.0 °F 63% 30.39 in 6.2 mi SSE 8.1 mph - N/A   Partly Cloudy
3:45 PM 62.6 °F 50.0 °F 63% 30.39 in 6.2 mi SSE 6.9 mph - N/A   Partly Cloudy
4:00 PM 61 °F 50 °F 59% 30.41 in 16 mi SSE 8.1 mph - -   Scattered Clouds
4:15 PM 60.8 °F 50.0 °F 68% 30.39 in 6.2 mi SSE 6.9 mph - N/A   Partly Cloudy
4:45 PM 57.2 °F 50.0 °F 77% 30.39 in 6.2 mi SSE 8.1 mph - N/A   Partly Cloudy
5:15 PM 57.2 °F 50.0 °F 77% 30.39 in 6.2 mi SSE 3.5 mph - N/A   Partly Cloudy
5:45 PM 59.0 °F 50.0 °F 72% 30.39 in 6.2 mi SSE 4.6 mph - N/A   Partly Cloudy
6:15 PM 57.2 °F 50.0 °F 77% 30.39 in 6.2 mi SSE 4.6 mph - N/A   Partly Cloudy
6:45 PM 59.0 °F 50.0 °F 72% 30.39 in 6.2 mi SSE 5.8 mph - N/A   Partly Cloudy
7:00 PM 59 °F 51 °F 67% 30.41 in 9 mi SSE 3.5 mph - -  
7:15 PM 59.0 °F 51.8 °F 77% 30.39 in - South 2.3 mph - N/A   Clear
7:45 PM 59.0 °F 51.8 °F 77% 30.39 in - Variable 2.3 mph - N/A   Clear
8:15 PM 57.2 °F 51.8 °F 82% 30.39 in - SSE 2.3 mph - N/A   Clear
8:45 PM 57.2 °F 50.0 °F 77% 30.39 in - SE 3.5 mph - N/A   Clear
9:15 PM 59.0 °F 50.0 °F 72% 30.39 in 6.2 mi SSE 4.6 mph - N/A   Partly Cloudy
9:45 PM 57.2 °F 50.0 °F 77% 30.39 in - SE 3.5 mph - N/A   Clear
10:00 PM 57 °F 51 °F 74% 30.41 in 9 mi SE 2.3 mph - -   Mostly Cloudy
10:15 PM 57.2 °F 51.8 °F 82% 30.39 in 6.2 mi ESE 2.3 mph - N/A   Partly Cloudy
10:45 PM 57.2 °F 51.8 °F 82% 30.39 in - South 2.3 mph - N/A   Clear
11:15 PM 57.2 °F 51.8 °F 82% 30.39 in - SSE 3.5 mph - N/A   Clear
11:45 PM 57.2 °F 51.8 °F 82% 30.39 in - Variable 1.2 mph - N/A   Clear